When you browse on this site, cookies collect data to enhance your experience and personalize the content and advertising you see.
Visit our Privacy Policy to learn more. By continuing to use the site, you agree to this use of cookies and data.
  • In Latvia
  • List of Countries
  • For 7 days
  • Water Temperature
  • Weather Map
  • Weather Widgets
  • user-avatar
    Login

    Hourly Weather Denpasar

    Today, 22 February, Saturday

    Time Temperature Precipitation Wind Pressure Humidity
    00:00 +27°C° 0.7 mm 3 mps 756 mmHg 90%
    01:00 +27°C° 0.7 mm 3 mps 755 mmHg 89%
    02:00 +27°C° 0.7 mm 3 mps 755 mmHg 87%
    03:00 +27°C° 0.7 mm 2 mps 755 mmHg 87%
    04:00 +27°C° 0.7 mm 2 mps 755 mmHg 87%
    05:00 +27°C° 0.7 mm 2 mps 754 mmHg 87%
    06:00 +27°C° 0.4 mm 2 mps 755 mmHg 84%
    07:00 +28°C° 0.4 mm 2 mps 755 mmHg 81%
    08:00 +29°C° 0.4 mm 1 mps 756 mmHg 78%
    09:00 +31°C° 0 mm 2 mps 756 mmHg 71%
    10:00 +32°C° 0 mm 2 mps 756 mmHg 64%
    11:00 +35°C° 0 mm 3 mps 756 mmHg 57%
    12:00 +35°C° 0.1 mm 3 mps 755 mmHg 58%
    13:00 +35°C° 0.1 mm 3 mps 754 mmHg 59%
    14:00 +35°C° 0.1 mm 3 mps 754 mmHg 60%
    15:00 +34°C° 0.6 mm 3 mps 754 mmHg 66%
    16:00 +33°C° 0.6 mm 3 mps 753 mmHg 72%
    17:00 +31°C° 0.6 mm 3 mps 753 mmHg 78%
    18:00 +30°C° 0.8 mm 3 mps 753 mmHg 82%
    19:00 +29°C° 0.8 mm 2 mps 754 mmHg 87%
    20:00 +27°C° 0.8 mm 2 mps 754 mmHg 92%
    21:00 +27°C° 0.5 mm 2 mps 755 mmHg 91%
    22:00 +27°C° 0.5 mm 2 mps 755 mmHg 90%
    23:00 +27°C° 0.5 mm 2 mps 756 mmHg 90%

    Tomorrow, 23 February, Sunday

    Time Temperature Precipitation Wind Pressure Humidity
    00:00 +26°C° 0.1 mm 2 mps 755 mmHg 90%
    01:00 +26°C° 0.1 mm 2 mps 755 mmHg 90%
    02:00 +26°C° 0.1 mm 2 mps 754 mmHg 90%
    03:00 +26°C° 0 mm 2 mps 754 mmHg 90%
    04:00 +26°C° 0 mm 2 mps 754 mmHg 90%
    05:00 +26°C° 0 mm 2 mps 754 mmHg 90%
    06:00 +27°C° 0 mm 2 mps 754 mmHg 87%
    07:00 +28°C° 0 mm 2 mps 755 mmHg 84%
    08:00 +29°C° 0 mm 2 mps 755 mmHg 82%
    09:00 +30°C° 0 mm 2 mps 755 mmHg 75%
    10:00 +32°C° 0 mm 2 mps 755 mmHg 67%
    11:00 +35°C° 0 mm 3 mps 755 mmHg 60%
    12:00 +35°C° 0 mm 3 mps 754 mmHg 59%
    13:00 +35°C° 0 mm 3 mps 753 mmHg 58%
    14:00 +35°C° 0 mm 3 mps 753 mmHg 57%
    15:00 +34°C° 0.4 mm 2 mps 753 mmHg 66%
    16:00 +31°C° 0.4 mm 2 mps 752 mmHg 76%
    17:00 +30°C° 0.4 mm 2 mps 752 mmHg 85%
    18:00 +29°C° 0.6 mm 2 mps 753 mmHg 87%
    19:00 +28°C° 0.6 mm 2 mps 753 mmHg 89%
    20:00 +27°C° 0.6 mm 1 mps 754 mmHg 91%
    21:00 +27°C° 0.2 mm 1 mps 754 mmHg 91%
    22:00 +27°C° 0.2 mm 1 mps 754 mmHg 91%
    23:00 +26°C° 0.2 mm 1 mps 755 mmHg 91%

    Day after tomorrow, 24 February, Monday

    Time Temperature Precipitation Wind Pressure Humidity
    00:00 +26°C° 0 mm 1 mps 754 mmHg 90%
    01:00 +26°C° 0 mm 1 mps 754 mmHg 90%
    02:00 +26°C° 0 mm 2 mps 753 mmHg 90%
    03:00 +26°C° 0 mm 1 mps 753 mmHg 89%
    04:00 +26°C° 0 mm 1 mps 753 mmHg 88%
    05:00 +26°C° 0 mm 1 mps 753 mmHg 87%
    06:00 +27°C° 0 mm 1 mps 754 mmHg 84%
    07:00 +28°C° 0 mm 1 mps 754 mmHg 80%
    08:00 +29°C° 0 mm 1 mps 754 mmHg 77%
    09:00 +30°C° 0 mm 1 mps 754 mmHg 70%
    10:00 +32°C° 0 mm 1 mps 754 mmHg 63%
    11:00 +34°C° 0 mm 1 mps 754 mmHg 55%
    12:00 +35°C° 0.1 mm 2 mps 754 mmHg 57%
    13:00 +35°C° 0.1 mm 2 mps 753 mmHg 59%
    14:00 +35°C° 0.1 mm 2 mps 753 mmHg 61%
    15:00 +34°C° 0.3 mm 2 mps 752 mmHg 65%
    16:00 +32°C° 0.3 mm 1 mps 752 mmHg 69%
    17:00 +32°C° 0.3 mm 1 mps 752 mmHg 73%
    18:00 +30°C° 0.1 mm 1 mps 753 mmHg 78%
    19:00 +29°C° 0.1 mm 1 mps 753 mmHg 84%
    20:00 +26°C° 0.1 mm 0 mps 754 mmHg 89%
    21:00 +27°C° 0.1 mm 1 mps 754 mmHg 90%
    22:00 +27°C° 0.1 mm 1 mps 754 mmHg 90%
    23:00 +27°C° 0.1 mm 1 mps 754 mmHg 91%

    25 February, Tuesday

    Time Temperature Precipitation Wind Pressure Humidity
    00:00 +27°C° 0 mm 1 mps 754 mmHg 90%
    01:00 +27°C° 0 mm 1 mps 754 mmHg 89%
    02:00 +26°C° 0 mm 1 mps 753 mmHg 88%
    03:00 +26°C° 0 mm 1 mps 753 mmHg 88%
    04:00 +26°C° 0 mm 1 mps 753 mmHg 88%
    05:00 +26°C° 0 mm 1 mps 753 mmHg 87%
    06:00 +27°C° 0 mm 1 mps 753 mmHg 85%
    07:00 +28°C° 0 mm 1 mps 753 mmHg 82%
    08:00 +29°C° 0 mm 1 mps 754 mmHg 79%
    09:00 +31°C° 0 mm 1 mps 754 mmHg 72%
    10:00 +32°C° 0 mm 2 mps 754 mmHg 64%
    11:00 +35°C° 0 mm 2 mps 754 mmHg 56%
    12:00 +35°C° 0.2 mm 2 mps 753 mmHg 59%
    13:00 +35°C° 0.2 mm 2 mps 753 mmHg 61%
    14:00 +34°C° 0.2 mm 2 mps 752 mmHg 64%
    15:00 +34°C° 0.1 mm 2 mps 752 mmHg 65%
    16:00 +32°C° 0.1 mm 2 mps 752 mmHg 66%
    17:00 +32°C° 0.1 mm 2 mps 752 mmHg 67%
    18:00 +31°C° 0 mm 2 mps 752 mmHg 74%
    19:00 +29°C° 0 mm 1 mps 753 mmHg 81%
    20:00 +28°C° 0 mm 1 mps 753 mmHg 88%
    21:00 +28°C° 0 mm 1 mps 753 mmHg 87%
    22:00 +27°C° 0 mm 1 mps 754 mmHg 86%
    23:00 +27°C° 0 mm 1 mps 754 mmHg 86%

    26 February, Wednesday

    Time Temperature Precipitation Wind Pressure Humidity
    00:00 +27°C° 0 mm 1 mps 754 mmHg 85%
    01:00 +27°C° 0 mm 1 mps 753 mmHg 84%
    02:00 +27°C° 0 mm 1 mps 753 mmHg 84%
    03:00 +27°C° 0 mm 2 mps 753 mmHg 83%
    04:00 +27°C° 0 mm 2 mps 753 mmHg 82%
    05:00 +27°C° 0 mm 2 mps 752 mmHg 81%
    06:00 +28°C° 0 mm 2 mps 753 mmHg 78%
    07:00 +29°C° 0 mm 2 mps 753 mmHg 75%
    08:00 +30°C° 0 mm 2 mps 754 mmHg 72%
    09:00 +31°C° 0 mm 2 mps 754 mmHg 66%
    10:00 +34°C° 0 mm 2 mps 754 mmHg 60%
    11:00 +35°C° 0 mm 3 mps 754 mmHg 55%
    12:00 +35°C° 0.2 mm 3 mps 753 mmHg 56%
    13:00 +35°C° 0.2 mm 3 mps 752 mmHg 57%
    14:00 +35°C° 0.2 mm 3 mps 752 mmHg 59%
    15:00 +34°C° 0.3 mm 2 mps 752 mmHg 63%
    16:00 +34°C° 0.3 mm 2 mps 751 mmHg 67%
    17:00 +32°C° 0.3 mm 2 mps 751 mmHg 72%
    18:00 +30°C° 0 mm 1 mps 752 mmHg 77%
    19:00 +29°C° 0 mm 1 mps 752 mmHg 81%
    20:00 +28°C° 0 mm 1 mps 753 mmHg 86%
    21:00 +28°C° 0 mm 1 mps 753 mmHg 86%
    22:00 +28°C° 0 mm 1 mps 753 mmHg 86%
    23:00 +28°C° 0 mm 1 mps 754 mmHg 86%

    27 February, Thursday

    Time Temperature Precipitation Wind Pressure Humidity
    00:00 +28°C° 0.1 mm 1 mps 753 mmHg 85%
    01:00 +28°C° 0.1 mm 1 mps 753 mmHg 85%
    02:00 +27°C° 0.1 mm 2 mps 753 mmHg 84%
    03:00 +27°C° 0 mm 2 mps 753 mmHg 84%
    04:00 +27°C° 0 mm 2 mps 752 mmHg 84%
    05:00 +27°C° 0 mm 2 mps 752 mmHg 84%
    06:00 +28°C° 0.1 mm 2 mps 753 mmHg 80%
    07:00 +29°C° 0.1 mm 2 mps 753 mmHg 77%
    08:00 +30°C° 0.1 mm 1 mps 754 mmHg 73%
    09:00 +31°C° 0.1 mm 2 mps 754 mmHg 70%
    10:00 +32°C° 0.1 mm 2 mps 754 mmHg 66%
    11:00 +35°C° 0.1 mm 3 mps 754 mmHg 62%
    12:00 +34°C° 0.5 mm 2 mps 753 mmHg 63%
    13:00 +34°C° 0.5 mm 2 mps 752 mmHg 64%
    14:00 +34°C° 0.5 mm 2 mps 752 mmHg 65%
    15:00 +32°C° 0.5 mm 2 mps 751 mmHg 71%
    16:00 +31°C° 0.5 mm 2 mps 751 mmHg 77%
    17:00 +30°C° 0.5 mm 2 mps 751 mmHg 83%
    18:00 +30°C° 0.1 mm 2 mps 751 mmHg 85%
    19:00 +29°C° 0.1 mm 2 mps 752 mmHg 88%
    20:00 +28°C° 0.1 mm 2 mps 752 mmHg 90%
    21:00 +28°C° 0.2 mm 2 mps 753 mmHg 90%
    22:00 +28°C° 0.2 mm 2 mps 753 mmHg 90%
    23:00 +28°C° 0.2 mm 2 mps 753 mmHg 89%
    Show more